[[{"header":{"parameterUnit":"m.s-1","parameterCategory":1,"la1":30.2991,"la2":30.254,"lo1":-89.0895,"lo2":-89.0444,"dy":0.0017,"dx":0.0017,"nx":28,"ny":28,"refTime":"2025-08-21T09:00:00:Z","depth":0,"parameterNumber":2,"parameterNumberName":"U-component_of_WINDS"},"data":[0,0,0,0,0,0,0,0,0,0,0,0,0,0,0,0,0,0,0,0,0,0,0,0,0,0,0,0,0,0,0,0,0,0,0,0,0,0,0,0,0,0,0,0,0,0,0,0,0,0,0,0,0,0,0,0,0,0,1.3564,1.3564,0,1.3561,1.3561,1.3561,1.3546,1.3546,1.3546,1.3545,1.3542,1.3542,1.3542,0,0,0,0,0,0,0,0,0,0,0,0,0,1.356,1.356,1.3564,1.3564,1.3564,1.3561,1.3561,1.3561,1.3546,1.3546,1.3546,1.3545,1.3542,1.3542,1.3542,0,0,0,0,0,0,0,0,0,0,0,0,0,1.356,1.356,1.3564,1.3557,1.3556,1.3561,1.3561,1.3561,1.3546,1.3546,1.3545,1.3545,1.3541,1.3542,1.3542,1.3554,0,0,1.3543,1.3543,0,0,0,0,0,0,0,0,1.356,1.356,1.3558,1.3557,1.3556,1.3553,1.3558,1.3558,1.3547,1.355,1.3545,1.3545,1.3546,1.3546,1.3546,1.3554,1.3554,1.3543,1.3543,1.3543,1.3543,0,0,0,0,0,0,0,1.356,1.356,1.3563,1.3558,1.3557,1.3554,1.3553,1.3558,1.3551,1.355,1.3549,1.3548,1.3545,1.3546,1.3546,1.3553,1.3543,1.3543,1.3544,1.3544,1.3572,1.3573,0,0,0,0,0,0,1.3561,1.356,1.3563,1.3563,1.3557,1.3554,1.3554,1.3555,1.3551,1.355,1.3549,1.3548,1.3546,1.3546,1.3546,1.3561,1.3543,1.3544,1.3544,1.3572,1.3572,1.3573,0,0,0,0,0,0,1.3561,1.3561,1.3563,1.3561,1.3561,1.3555,1.3556,1.3555,1.3556,1.355,1.3549,1.3551,1.3545,1.3545,1.3552,1.3561,1.3544,1.3544,1.3571,1.3572,1.3573,1.359,0,0,0,0,0,0,1.3561,1.3561,1.3565,1.3561,1.3561,1.357,1.3557,1.3555,1.3556,1.3555,1.3551,1.355,1.3545,1.3552,1.3553,1.3561,1.3544,1.357,1.3572,1.3573,1.3589,1.3591,1.3594,0,0,0,0,0,1.3561,1.357,1.3566,1.3566,1.3566,1.357,1.357,1.3564,1.3557,1.3561,1.3558,1.355,1.3559,1.3553,1.3554,1.3562,1.357,1.3571,1.3572,1.3588,1.3591,1.3594,0,0,0,0,0,0,1.3575,1.3569,1.3564,1.3573,1.3572,1.3568,1.3573,1.3567,1.3568,1.3567,1.3558,1.3558,1.3566,1.3564,1.3557,1.3574,1.3563,1.3565,1.3575,1.3578,1.358,1.3581,1.3545,0,0,0,0,0,1.3579,1.3582,1.3577,1.3585,1.3585,1.3579,1.358,1.3576,1.3574,1.3574,1.3571,1.3571,1.3573,1.3575,1.3577,1.3588,1.3588,1.3594,1.3597,1.3599,1.3601,1.3608,1.3611,1.3577,1.3577,1.3577,0,0,1.3588,1.3585,1.3588,1.3588,1.3587,1.3591,1.3579,1.3583,1.3587,1.3575,1.3582,1.358,1.3578,1.3588,1.3592,1.3587,1.361,1.36,1.3602,1.3603,1.361,1.3613,1.3616,1.3578,1.3578,1.3578,0,0,1.3606,1.3604,1.3611,1.361,1.3609,1.3605,1.3606,1.3603,1.3602,1.3608,1.36,1.3604,1.3608,1.3608,1.3609,1.3628,1.3622,1.3629,1.3642,1.365,1.3652,1.3655,1.3663,1.3666,1.3631,1.3631,1.3631,0,1.3617,1.3622,1.3615,1.3621,1.3622,1.3611,1.3619,1.3619,1.3618,1.3619,1.3613,1.362,1.3618,1.3628,1.3633,1.3634,1.3636,1.363,1.3652,1.3655,1.3657,1.3665,1.3668,1.3632,1.3632,1.3631,1.3631,0,1.3637,1.3641,1.3647,1.3647,1.3649,1.3655,1.365,1.3652,1.3647,1.3644,1.3652,1.365,1.3652,1.3654,1.3649,1.3664,1.3661,1.3654,1.3644,1.3661,1.3669,1.3672,1.3633,1.3633,1.3632,1.3632,0,0,1.3664,1.3661,1.3663,1.3664,1.3662,1.3665,1.3672,1.3674,1.3677,1.3677,1.3683,1.3688,1.3682,1.3683,1.3678,1.3684,1.3702,1.3676,1.3676,1.3682,1.372,1.3727,1.373,1.3697,1.3698,1.3698,1.3721,0,1.3682,1.3693,1.3687,1.37,1.3704,1.3695,1.3701,1.3701,1.3698,1.3702,1.3699,1.3704,1.3694,1.3695,1.3701,1.3698,1.3709,1.3696,1.3704,1.3704,1.3706,1.3734,1.374,1.3762,1.3723,1.3724,1.3724,0,1.3705,1.3707,1.372,1.3719,1.372,1.3726,1.3728,1.3732,1.3732,1.373,1.3731,1.3725,1.3733,1.3722,1.3732,1.3724,1.3726,1.3726,1.3727,1.3728,1.3716,1.3738,1.3768,1.3772,1.3728,1.3728,1.3728,0,1.3726,1.3731,1.374,1.3741,1.3739,1.3743,1.3743,1.3742,1.3745,1.3747,1.3749,1.3752,1.3754,1.3756,1.3752,1.3744,1.3764,1.3752,1.3763,1.3764,1.3769,1.3769,1.3802,1.3768,1.3768,1.3768,1.3768,0,1.3748,1.3756,1.3749,1.3755,1.3765,1.3758,1.3768,1.3766,1.3766,1.3772,1.3764,1.3769,1.3762,1.3768,1.3764,1.3774,1.3775,1.3774,1.3773,1.3776,1.3776,1.3778,1.3777,1.3769,1.3769,1.3768,1.3768,0,1.3773,1.3768,1.3777,1.3775,1.3775,1.3782,1.3781,1.3786,1.3784,1.3791,1.3792,1.3788,1.3794,1.379,1.3795,1.3793,1.3807,1.3803,1.3807,1.3807,1.3819,1.3819,1.3856,1.3861,1.3823,1.3823,1.3823,0,1.3788,1.3794,1.3793,1.3796,1.3797,1.3802,1.3804,1.3798,1.3801,1.3803,1.3809,1.3814,1.3818,1.3828,1.3826,1.383,1.3827,1.384,1.3828,1.3831,1.383,1.383,1.3832,1.3843,1.3844,1.3844,1.3844,0,1.3815,1.3813,1.3817,1.3821,1.3824,1.3827,1.3829,1.3832,1.3826,1.383,1.3836,1.384,1.3846,1.3852,1.3856,1.3856,1.385,1.3848,1.3851,1.3854,1.3857,1.3858,1.3816,1.3847,1.3847,1.3847,1.3847,1.3847,1.3837,1.3843,1.3843,1.3849,1.385,1.3852,1.3858,1.3856,1.3861,1.3866,1.3862,1.3869,1.3871,1.3876,1.3877,1.3883,1.3878,1.3882,1.3883,1.3885,1.3888,1.3855,1.3884,1.3883,1.3883,1.3883,1.3883,0,1.3865,1.3865,1.387,1.3874,1.3878,1.3872,1.3874,1.3879,1.3885,1.3887,1.3891,1.3899,1.3905,1.3904,1.3909,1.3915,1.3913,1.3917,1.3917,1.3918,1.3891,1.3888,1.3919,1.3919,1.3919,1.3919,1.3919,1.3919,1.3881,1.3891,1.3889,1.3901,1.3901,1.3909,1.3911,1.3913,1.3915,1.3924,1.3929,1.3928,1.3929,1.3935,1.3941,1.394,1.3943,1.3949,1.3948,1.3923,1.3919,1.3916,1.3914,1.3949,1.3949,1.3974,1.3974,1.3975]},{"header":{"parameterUnit":"m.s-1","parameterCategory":1,"la1":30.2991,"la2":30.254,"lo1":-89.0895,"lo2":-89.0444,"dy":0.0017,"dx":0.0017,"nx":28,"ny":28,"refTime":"2025-08-21T09:00:00:Z","depth":0,"parameterNumber":3,"parameterNumberName":"V-component_of_WINDS"},"data":[0,0,0,0,0,0,0,0,0,0,0,0,0,0,0,0,0,0,0,0,0,0,0,0,0,0,0,0,0,0,0,0,0,0,0,0,0,0,0,0,0,0,0,0,0,0,0,0,0,0,0,0,0,0,0,0,0,0,-0.5436,-0.5438,0,-0.5535,-0.5536,-0.5537,-0.5578,-0.5578,-0.5578,-0.5578,-0.5678,-0.568,-0.5683,0,0,0,0,0,0,0,0,0,0,0,0,0,-0.5283,-0.5286,-0.5436,-0.5438,-0.5439,-0.5535,-0.5536,-0.5537,-0.5578,-0.5578,-0.5578,-0.5578,-0.5677,-0.568,-0.5683,0,0,0,0,0,0,0,0,0,0,0,0,0,-0.5362,-0.5287,-0.5436,-0.5471,-0.5475,-0.5535,-0.5536,-0.5538,-0.5578,-0.5578,-0.5578,-0.5577,-0.5676,-0.568,-0.5684,-0.5716,0,0,-0.5697,-0.5699,0,0,0,0,0,0,0,0,-0.5358,-0.5368,-0.5464,-0.5469,-0.5473,-0.5544,-0.5519,-0.5598,-0.5578,-0.5539,-0.5578,-0.5577,-0.5633,-0.5641,-0.566,-0.5721,-0.5725,-0.5697,-0.57,-0.5702,-0.5703,0,0,0,0,0,0,0,-0.5352,-0.5364,-0.5475,-0.5466,-0.5471,-0.5481,-0.5492,-0.5534,-0.5587,-0.5542,-0.5546,-0.5557,-0.5636,-0.5656,-0.5663,-0.5727,-0.5697,-0.5701,-0.5704,-0.5705,-0.5819,-0.582,0,0,0,0,0,0,-0.5341,-0.5359,-0.5472,-0.5478,-0.5414,-0.5484,-0.5497,-0.5522,-0.5586,-0.5596,-0.5557,-0.5558,-0.5649,-0.5658,-0.5666,-0.5709,-0.5702,-0.5706,-0.5708,-0.5819,-0.582,-0.582,0,0,0,0,0,0,-0.5338,-0.5351,-0.5468,-0.542,-0.5435,-0.5487,-0.5515,-0.5524,-0.5544,-0.5597,-0.5607,-0.5568,-0.5649,-0.566,-0.5704,-0.5713,-0.5708,-0.5711,-0.5818,-0.5819,-0.582,-0.5794,0,0,0,0,0,0,-0.5333,-0.5349,-0.5362,-0.542,-0.5438,-0.5504,-0.5516,-0.5526,-0.5551,-0.5554,-0.561,-0.5619,-0.565,-0.5697,-0.5708,-0.5719,-0.5715,-0.5818,-0.5819,-0.582,-0.5795,-0.5794,-0.5794,0,0,0,0,0,-0.5328,-0.5351,-0.5363,-0.5376,-0.5455,-0.5504,-0.5515,-0.555,-0.5552,-0.5565,-0.56,-0.5617,-0.571,-0.5701,-0.5714,-0.5726,-0.5817,-0.5818,-0.582,-0.5795,-0.5794,-0.5794,0,0,0,0,0,0,-0.5293,-0.5359,-0.5373,-0.5415,-0.5454,-0.5511,-0.5529,-0.5548,-0.5586,-0.5587,-0.5628,-0.5641,-0.5681,-0.5708,-0.5696,-0.5761,-0.5765,-0.5769,-0.5742,-0.5742,-0.5742,-0.5734,-0.5718,0,0,0,0,0,-0.529,-0.5325,-0.5381,-0.5413,-0.5432,-0.5477,-0.55,-0.5523,-0.5565,-0.5581,-0.5619,-0.5658,-0.5696,-0.5721,-0.5759,-0.5798,-0.5812,-0.5813,-0.5813,-0.5812,-0.5815,-0.5839,-0.584,-0.5824,-0.5824,-0.5824,0,0,-0.5285,-0.5325,-0.5345,-0.5407,-0.544,-0.5475,-0.549,-0.5527,-0.5553,-0.5587,-0.563,-0.5659,-0.5706,-0.5748,-0.5768,-0.5771,-0.5822,-0.5813,-0.5813,-0.5816,-0.584,-0.5842,-0.5843,-0.5824,-0.5824,-0.5824,0,0,-0.5293,-0.5327,-0.5358,-0.5391,-0.544,-0.547,-0.5478,-0.5532,-0.5553,-0.5597,-0.5623,-0.5655,-0.572,-0.5752,-0.5777,-0.5799,-0.5817,-0.581,-0.5808,-0.583,-0.5832,-0.5833,-0.5841,-0.5844,-0.5812,-0.5812,-0.5812,0,-0.528,-0.5335,-0.5371,-0.5407,-0.5434,-0.5466,-0.5498,-0.5527,-0.5586,-0.5604,-0.5607,-0.569,-0.5723,-0.5774,-0.5779,-0.5798,-0.5808,-0.5804,-0.5828,-0.583,-0.5832,-0.584,-0.5843,-0.5811,-0.5811,-0.5811,-0.5811,0,-0.5317,-0.5354,-0.5373,-0.543,-0.5459,-0.5492,-0.5534,-0.5559,-0.5579,-0.5609,-0.5654,-0.5696,-0.5743,-0.5757,-0.5777,-0.581,-0.5811,-0.582,-0.5826,-0.5832,-0.584,-0.5844,-0.5809,-0.581,-0.581,-0.581,0,0,-0.5306,-0.5383,-0.539,-0.5416,-0.5474,-0.5503,-0.5538,-0.5584,-0.5605,-0.5645,-0.5675,-0.5729,-0.5739,-0.5767,-0.5792,-0.5812,-0.5827,-0.5819,-0.5821,-0.582,-0.5866,-0.5859,-0.5862,-0.5839,-0.5839,-0.584,-0.5863,0,-0.5323,-0.5387,-0.5421,-0.5471,-0.5506,-0.5537,-0.5568,-0.5606,-0.5635,-0.5669,-0.57,-0.5738,-0.5748,-0.5765,-0.5786,-0.582,-0.5837,-0.5819,-0.5868,-0.5869,-0.5856,-0.5866,-0.5859,-0.5878,-0.5866,-0.5867,-0.5867,0,-0.5351,-0.5391,-0.5444,-0.5498,-0.5514,-0.5541,-0.5587,-0.5619,-0.5663,-0.5682,-0.5714,-0.5738,-0.5776,-0.5778,-0.5831,-0.5818,-0.584,-0.586,-0.5861,-0.5868,-0.5869,-0.5874,-0.5885,-0.5888,-0.5873,-0.5872,-0.5872,0,-0.5339,-0.5406,-0.5447,-0.5468,-0.5532,-0.555,-0.5577,-0.5621,-0.5647,-0.5687,-0.5705,-0.5748,-0.5772,-0.5805,-0.5841,-0.5838,-0.589,-0.5895,-0.5908,-0.5907,-0.5918,-0.5917,-0.5933,-0.593,-0.593,-0.593,-0.593,0,-0.5354,-0.5386,-0.5442,-0.5467,-0.5503,-0.5542,-0.5577,-0.5607,-0.5646,-0.5677,-0.5706,-0.5735,-0.578,-0.5814,-0.5842,-0.5882,-0.5893,-0.591,-0.5917,-0.5907,-0.5905,-0.5923,-0.5922,-0.5931,-0.5931,-0.5931,-0.5931,0,-0.5347,-0.5386,-0.5432,-0.5489,-0.5504,-0.5528,-0.5577,-0.5602,-0.5632,-0.5672,-0.5683,-0.5731,-0.5773,-0.5811,-0.5867,-0.5886,-0.5926,-0.5935,-0.5912,-0.5916,-0.5927,-0.5925,-0.5956,-0.5962,-0.5954,-0.5954,-0.5954,0,-0.5354,-0.5379,-0.5439,-0.5462,-0.5489,-0.5526,-0.5553,-0.5593,-0.562,-0.5672,-0.5691,-0.5736,-0.5773,-0.5839,-0.5878,-0.5921,-0.5932,-0.5939,-0.5938,-0.5928,-0.5932,-0.5931,-0.5934,-0.5939,-0.5939,-0.5938,-0.5938,0,-0.5364,-0.5382,-0.542,-0.5465,-0.5497,-0.5534,-0.5572,-0.5589,-0.5636,-0.5664,-0.5708,-0.5737,-0.5795,-0.5838,-0.5886,-0.5914,-0.5934,-0.5938,-0.5944,-0.5935,-0.592,-0.5929,-0.5911,-0.5938,-0.5938,-0.5938,-0.5938,-0.5938,-0.5365,-0.5389,-0.5435,-0.5476,-0.5509,-0.5544,-0.5571,-0.5605,-0.5642,-0.5693,-0.5713,-0.5758,-0.5802,-0.5868,-0.5895,-0.5931,-0.5935,-0.5942,-0.5944,-0.5946,-0.5944,-0.5914,-0.5939,-0.5939,-0.5939,-0.5939,-0.5939,0,-0.5376,-0.5408,-0.5445,-0.5498,-0.5531,-0.5547,-0.559,-0.5617,-0.5656,-0.5695,-0.5732,-0.5782,-0.5825,-0.5867,-0.5912,-0.5932,-0.5943,-0.5943,-0.5942,-0.5948,-0.5938,-0.5929,-0.5934,-0.5934,-0.5934,-0.5934,-0.5934,-0.5934,-0.5386,-0.5428,-0.5452,-0.551,-0.5541,-0.5585,-0.5609,-0.5641,-0.5673,-0.5728,-0.5764,-0.5792,-0.5833,-0.5881,-0.5921,-0.5932,-0.5948,-0.5945,-0.5959,-0.5949,-0.5949,-0.5949,-0.5941,-0.5948,-0.5948,-0.5967,-0.5967,-0.5968]}]]